FW1792 Weather Reports


time (UTC)temp
F
wind
direction
speed
knots
gust
knots
rain 1hr
in
rain 24hr
in
rain mn
in
humidity
%
barometer
mb
20260503005210 52 65 0.0 0.0 0.00 0.00 0.00 75 1018.9
20260503004705 53 65 0.0 0.0 0.00 0.00 0.00 75 1018.9
20260503004201 53 65 0.0 0.0 0.00 0.00 0.00 73 1018.9
20260503003658 53 65 0.0 0.0 0.00 0.00 0.00 72 1018.9
20260503003200 54 65 0.0 0.0 0.00 0.00 0.00 72 1019.1
20260503002658 54 65 0.0 0.0 0.00 0.00 0.00 72 1019.1
20260503002157 53 65 0.0 0.0 0.00 0.00 0.00 72 1019.1
20260503001911 54 65 0.0 0.0 0.00 0.00 0.00 71 1019.2
20260503001719 54 65 0.0 0.0 0.00 0.00 0.00 71 1019.2
20260503000643 54 65 0.0 0.0 0.00 0.00 0.00 71 1019.3
20260503000145 55 65 0.0 0.0 0.00 0.00 0.00 70 1019.3
20260502235641 55 65 0.0 0.0 0.00 0.00 0.00 70 1019.4
20260502235143 55 65 0.0 0.0 0.00 0.00 0.00 69 1019.4
20260502234639 56 65 0.0 0.0 0.00 0.00 0.00 68 1019.5
20260502234136 56 65 0.0 0.0 0.00 0.00 0.00 68 1019.5
20260502233636 56 65 0.0 0.0 0.00 0.00 0.00 68 1019.5
20260502233137 55 65 0.0 0.0 0.00 0.00 0.00 68 1019.5
20260502232636 55 65 0.0 0.0 0.00 0.00 0.00 68 1019.6
20260502232146 55 65 0.0 0.0 0.00 0.00 0.00 69 1019.6
20260502231812 56 65 0.0 0.0 0.00 0.00 0.00 68 1019.7
20260502231653 55 65 0.0 0.0 0.00 0.00 0.00 69 1019.7
20260502230631 56 65 0.0 0.0 0.00 0.00 0.00 67 1019.6
20260502230129 57 65 0.0 0.0 0.00 0.00 0.00 66 1019.7
20260502225629 57 65 0.0 0.0 0.00 0.00 0.00 67 1019.7
20260502225132 57 65 0.0 0.0 0.00 0.00 0.00 65 1019.7
20260502224629 57 65 0.0 0.0 0.00 0.00 0.00 65 1019.6
20260502224129 57 65 0.0 0.0 0.00 0.00 0.00 65 1019.7
20260502223815 58 65 0.0 0.0 0.00 0.00 0.00 65 1019.8
20260502223651 57 65 0.0 0.0 0.00 0.00 0.00 65 1019.8
20260502222625 58 65 0.0 0.0 0.00 0.00 0.00 64 1019.7
20260502222128 58 65 0.0 0.0 0.00 0.00 0.00 64 1019.8
20260502221628 58 65 0.0 0.0 0.00 0.00 0.00 64 1019.8
20260502221124 58 65 0.0 0.0 0.00 0.00 0.00 64 1019.8
20260502220624 58 65 0.0 0.0 0.00 0.00 0.00 64 1019.8
20260502220123 58 65 0.0 0.0 0.00 0.00 0.00 64 1019.9
20260502215756 58 65 0.0 0.0 0.00 0.00 0.00 65 1019.9
20260502215642 58 65 0.0 0.0 0.00 0.00 0.00 65 1019.9
20260502214616 57 65 0.0 0.0 0.00 0.00 0.00 65 1019.8
20260502214247 58 65 0.0 0.0 0.00 0.00 0.00 65 1019.9
20260502214137 58 65 0.0 0.0 0.00 0.00 0.00 66 1019.9
20260502213115 58 65 0.0 0.0 0.00 0.00 0.00 66 1019.9
20260502212612 58 65 0.0 0.0 0.00 0.00 0.00 67 1019.9
20260502212109 58 65 0.0 0.0 0.00 0.00 0.00 65 1019.9
20260502211609 58 65 0.0 0.0 0.00 0.00 0.00 65 1019.9
20260502211216 59 65 0.0 0.0 0.00 0.00 0.00 67 1020.0
20260502211153 58 65 0.0 0.0 0.00 0.00 0.00 66 1019.9
20260502211109 58 65 0.0 0.0 0.00 0.00 0.00 64 1019.9
20260502210741 58 65 0.0 0.0 0.00 0.00 0.00 65 1019.9
20260502205634 58 65 0.0 0.0 0.00 0.00 0.00 68 1019.9
20260502204605 59 65 0.0 0.0 0.00 0.00 0.00 65 1020.0
20260502204411 60 65 0.0 0.0 0.00 0.00 0.00 62 1020.1
20260502204348 61 65 0.0 0.0 0.00 0.00 0.00 60 1020.0
20260502204151 60 65 0.0 0.0 0.00 0.00 0.00 65 1020.1
20260502202747 62 65 0.0 0.0 0.00 0.00 0.00 56 1020.0
20260502202627 61 65 0.0 0.0 0.00 0.00 0.00 59 1020.0
20260502201602 63 65 0.0 0.0 0.00 0.00 0.00 54 1020.0
20260502201100 63 96 0.0 2.6 0.00 0.00 0.00 52 1020.0
20260502200758 63 106 0.0 0.0 0.00 0.00 0.00 53 1020.1
20260502200629 63 94 0.0 2.6 0.00 0.00 0.00 53 1020.0
20260502195727 63 121 0.0 0.0 0.00 0.00 0.00 53 1020.1
20260502195614 63 106 0.0 0.0 0.00 0.00 0.00 54 1020.0
20260502194739 64 221 0.0 2.6 0.00 0.00 0.00 51 1019.9
20260502194614 64 89 0.0 0.0 0.00 0.00 0.00 52 1019.9
20260502193546 64 223 0.9 2.6 0.00 0.00 0.00 52 1019.8
20260502193040 64 223 0.0 0.9 0.00 0.00 0.00 52 1019.8
20260502192539 64 233 0.0 0.9 0.00 0.00 0.00 52 1019.8
20260502192038 64 235 0.0 0.0 0.00 0.00 0.00 51 1019.9
20260502191801 64 238 0.0 0.0 0.00 0.00 0.00 51 1019.8
20260502191606 64 238 0.0 0.0 0.00 0.00 0.00 50 1019.8
20260502190735 64 240 0.0 0.0 0.00 0.00 0.00 51 1019.7
20260502190608 64 240 0.0 0.0 0.00 0.00 0.00 51 1019.7
20260502185534 65 240 0.0 0.0 0.00 0.00 0.00 51 1019.7
20260502185032 65 240 0.0 0.0 0.00 0.00 0.00 50 1019.7
20260502184532 66 240 0.0 0.0 0.00 0.00 0.00 49 1019.5
20260502184034 66 235 0.0 0.0 0.00 0.00 0.00 48 1019.4
20260502183533 67 234 0.0 0.9 0.00 0.00 0.00 47 1019.5
20260502183032 67 202 0.0 0.9 0.00 0.00 0.00 46 1019.4
20260502182533 67 200 0.0 0.0 0.00 0.00 0.00 45 1019.3
20260502182033 68 188 0.0 0.9 0.00 0.00 0.00 45 1019.2
20260502181535 68 210 0.0 0.9 0.00 0.00 0.00 45 1019.2
20260502181034 68 195 0.0 0.0 0.00 0.00 0.00 44 1019.2
20260502180530 69 212 0.0 0.0 0.00 0.00 0.00 44 1019.1
20260502164149 73 248 0.0 0.9 0.00 0.00 0.00 36 1019.1
20260502164024 73 173 0.0 3.5 0.00 0.00 0.00 35 1019.0
20260502162920 74 216 0.0 1.7 0.00 0.00 0.00 34 1019.1
20260502162451 73 200 0.9 6.1 0.00 0.00 0.00 36 1019.2
20260502162156 73 213 0.0 9.6 0.00 0.00 0.00 35 1019.2
20260502161559 73 223 0.9 9.6 0.00 0.00 0.00 35 1019.1
20260502160532 74 199 0.0 9.6 0.00 0.00 0.00 35 1019.2
20260502152255 74 220 4.3 12.2 0.00 0.00 0.00 34 1019.6
20260502151525 74 190 0.9 11.3 0.00 0.00 0.00 34 1019.7
20260502151025 74 212 0.0 10.4 0.00 0.00 0.00 34 1019.7
20260502150523 74 192 1.7 10.4 0.00 0.00 0.00 34 1019.7
20260502130503 73 230 2.6 7.8 0.00 0.00 0.00 35 1021.0
20260502123448 72 234 3.5 9.6 0.00 0.00 0.00 36 1021.4
20260502123310 71 190 0.9 5.2 0.00 0.00 0.00 36 1021.6
20260502123042 72 209 0.9 5.2 0.00 0.00 0.00 34 1021.5
20260502122508 72 188 0.0 5.2 0.00 0.00 0.00 35 1021.5
20260502121446 71 231 0.0 2.6 0.00 0.00 0.00 36 1021.7
20260502120943 71 193 0.0 3.5 0.00 0.00 0.00 36 1021.8
20260502120631 71 248 0.0 7.8 0.00 0.00 0.00 34 1021.8
20260502120511 72 234 0.9 6.1 0.00 0.00 0.00 36 1021.9
20260502115441 71 219 0.0 7.8 0.00 0.00 0.00 36 1021.9
20260502114937 71 199 0.0 6.1 0.00 0.00 0.00 35 1022.0
20260502114611 71 235 0.0 5.2 0.00 0.00 0.00 35 1022.2
20260502114455 71 235 0.9 6.1 0.00 0.00 0.00 35 1022.0
20260502113437 71 206 0.0 5.2 0.00 0.00 0.00 36 1022.1
20260502112935 71 193 0.0 9.6 0.00 0.00 0.00 36 1022.2
20260502112434 71 210 3.5 9.6 0.00 0.00 0.00 35 1022.3
20260502111935 71 152 0.0 9.6 0.00 0.00 0.00 36 1022.3
20260502111630 70 190 2.6 8.7 0.00 0.00 0.00 37 1022.4
20260502111458 71 188 0.0 9.6 0.00 0.00 0.00 36 1022.3
20260502110432 71 206 0.9 8.7 0.00 0.00 0.00 35 1022.4
20260502105932 70 141 0.9 8.7 0.00 0.00 0.00 36 1022.5
20260502105435 70 235 2.6 8.7 0.00 0.00 0.00 37 1022.6
20260502104931 69 197 0.9 8.7 0.00 0.00 0.00 38 1022.6
20260502104431 69 228 0.0 8.7 0.00 0.00 0.00 37 1022.7
20260502103926 69 197 0.0 8.7 0.00 0.00 0.00 36 1022.8
20260502103425 69 279 0.0 6.1 0.00 0.00 0.00 37 1022.9
20260502102921 69 210 0.0 9.6 0.00 0.00 0.00 38 1022.8
20260502102422 69 255 0.9 9.6 0.00 0.00 0.00 36 1022.9
20260502101921 69 250 0.0 6.1 0.00 0.00 0.00 38 1022.9
20260502101419 69 235 0.9 8.7 0.00 0.00 0.00 36 1023.0
20260502101252 69 252 0.9 8.7 0.00 0.00 0.00 36 1023.0
20260502101236 68 223 2.6 8.7 0.00 0.00 0.00 36 1023.3
20260502101003 68 227 0.9 8.7 0.00 0.00 0.00 37 1023.0
20260502091400 68 183 0.0 3.5 0.00 0.00 0.00 37 1023.6
20260502090903 67 197 0.0 1.7 0.00 0.00 0.00 38 1023.7
20260502090359 67 166 0.0 0.0 0.00 0.00 0.00 39 1023.7
20260502071423 61 334 0.0 3.5 0.00 0.00 0.00 52 1024.4
20260502070922 61 316 0.0 3.5 0.00 0.00 0.00 53 1024.4
20260502070421 60 18 0.9 2.6 0.00 0.00 0.00 53 1024.4
20260502065920 60 14 0.0 0.0 0.00 0.00 0.00 54 1024.4
20260502065421 60 0 0.0 3.5 0.00 0.00 0.00 54 1024.4
20260502064919 59 0 0.0 3.5 0.00 0.00 0.00 54 1024.4
20260502064418 59 355 0.0 3.5 0.00 0.00 0.00 56 1024.5
20260502063916 58 345 0.0 2.6 0.00 0.00 0.00 56 1024.5
20260502063418 58 59 0.0 2.6 0.00 0.00 0.00 56 1024.6
20260502062920 57 344 0.0 2.6 0.00 0.00 0.00 57 1024.6
20260502062601 57 334 0.0 1.7 0.00 0.00 0.00 57 1024.7
20260502062442 57 344 0.0 2.6 0.00 0.00 0.00 56 1024.6
20260502061654 57 63 0.0 0.0 0.00 0.00 0.00 58 1024.7
20260502060914 57 87 0.0 0.0 0.00 0.00 0.00 60 1024.6
20260502060412 56 87 0.0 0.0 0.00 0.00 0.00 59 1024.7
20260502060242 55 87 0.0 0.0 0.00 0.00 0.00 61 1024.7
20260502060016 56 87 0.0 0.0 0.00 0.00 0.00 60 1024.7
20260502055435 56 87 0.0 0.0 0.00 0.00 0.00 59 1024.7
20260502054408 55 87 0.0 0.0 0.00 0.00 0.00 62 1024.7
20260502054302 53 87 0.0 0.9 0.00 0.00 0.00 66 1024.9
20260502054016 54 87 0.0 0.0 0.00 0.00 0.00 64 1024.8
20260502053438 53 87 0.0 0.0 0.00 0.00 0.00 65 1024.8
20260502052406 52 89 0.0 0.9 0.00 0.00 0.00 67 1024.9
20260502051902 51 89 0.0 0.0 0.00 0.00 0.00 69 1024.9
20260502051407 50 89 0.0 0.0 0.00 0.00 0.00 68 1024.8
20260502051051 50 89 0.0 0.0 0.00 0.00 0.00 68 1024.8
20260502050923 50 89 0.0 0.0 0.00 0.00 0.00 68 1024.8
20260502045858 50 89 0.0 0.0 0.00 0.00 0.00 69 1024.8
20260502045356 50 89 0.0 0.0 0.00 0.00 0.00 68 1024.8
20260502044857 50 89 0.0 0.0 0.00 0.00 0.00 67 1024.8
20260502044351 50 89 0.0 0.0 0.00 0.00 0.00 68 1024.7
20260502043852 50 89 0.0 0.0 0.00 0.00 0.00 68 1024.8
20260502043351 49 89 0.0 0.0 0.00 0.00 0.00 69 1024.8
20260502043017 48 89 0.0 0.0 0.00 0.00 0.00 70 1024.8
20260502042906 49 89 0.0 0.0 0.00 0.00 0.00 70 1024.7
20260502041847 48 89 0.0 0.0 0.00 0.00 0.00 71 1024.7
20260502041343 48 89 0.0 0.0 0.00 0.00 0.00 71 1024.7
20260502040840 48 89 0.0 0.0 0.00 0.00 0.00 71 1024.7
20260502040720 48 89 0.0 0.0 0.00 0.00 0.00 72 1024.6
20260502040639 47 89 0.0 0.0 0.00 0.00 0.00 72 1024.7
20260502040436 48 89 0.0 0.0 0.00 0.00 0.00 72 1024.7
20260502035021 48 89 0.0 0.0 0.00 0.00 0.00 72 1024.7
20260502034904 47 89 0.0 0.0 0.00 0.00 0.00 72 1024.7
20260502033840 48 87 0.0 0.0 0.00 0.00 0.00 72 1024.7
20260502033337 48 87 0.0 0.0 0.00 0.00 0.00 72 1024.7
20260502032838 48 87 0.0 0.0 0.00 0.00 0.00 72 1024.8
20260502032702 48 87 0.0 0.0 0.00 0.00 0.00 71 1024.7
20260502032617 48 87 0.0 0.0 0.00 0.00 0.00 70 1024.7
20260502032424 48 87 0.0 0.0 0.00 0.00 0.00 72 1024.7
20260502030833 48 87 0.0 0.0 0.00 0.00 0.00 70 1024.7
20260502030329 48 87 0.0 0.0 0.00 0.00 0.00 70 1024.7
20260502025828 48 87 0.0 0.0 0.00 0.00 0.00 70 1024.8
20260502025328 48 87 0.0 0.0 0.00 0.00 0.00 70 1024.7
20260502024825 48 87 0.0 0.0 0.00 0.00 0.00 70 1024.8
20260502024442 49 87 0.0 0.0 0.00 0.00 0.00 70 1024.9
20260502024343 48 87 0.0 0.0 0.00 0.00 0.00 70 1024.8
20260502023323 49 87 0.0 0.0 0.00 0.00 0.00 70 1025.0
20260502022820 49 87 0.0 0.0 0.00 0.00 0.00 70 1024.9
20260502022321 49 87 0.0 0.0 0.00 0.00 0.00 69 1024.9
20260502021814 49 87 0.0 0.0 0.00 0.00 0.00 69 1024.9
20260502021313 49 87 0.0 0.0 0.00 0.00 0.00 68 1025.0
20260502020811 49 87 0.0 0.0 0.00 0.00 0.00 69 1025.0
20260502020311 49 87 0.0 0.0 0.00 0.00 0.00 69 1024.9
20260502015809 49 87 0.0 0.0 0.00 0.00 0.00 69 1025.0
20260502015314 49 87 0.0 0.0 0.00 0.00 0.00 69 1025.0
20260502014946 49 86 0.0 0.0 0.00 0.00 0.00 68 1025.1
20260502014831 49 87 0.0 0.0 0.00 0.00 0.00 70 1025.0
20260502013806 50 86 0.0 0.0 0.00 0.00 0.00 68 1025.0
20260502013308 50 86 0.0 0.0 0.00 0.00 0.00 67 1025.0
20260502012807 50 86 0.0 0.0 0.00 0.00 0.00 67 1025.1
20260502012306 50 86 0.0 0.0 0.00 0.00 0.00 66 1025.1
20260502011807 50 86 0.0 0.0 0.00 0.00 0.00 65 1025.1
20260502011306 51 86 0.0 0.0 0.00 0.00 0.00 64 1025.1
20260502010801 51 86 0.0 0.0 0.00 0.00 0.00 64 1025.1
20260502010302 51 86 0.0 0.0 0.00 0.00 0.00 64 1025.2
20260502005802 51 86 0.0 0.0 0.00 0.00 0.00 64 1025.1
20260502005517 51 86 0.0 0.0 0.00 0.00 0.00 64 1025.3
20260502005328 51 86 0.0 0.0 0.00 0.00 0.00 64 1025.2